Location: Rio Negrinho
(26.2394°S, 49.4999°W)
Time: 12:38:51
(UTC+00:00)

NOAA 6 - Pass Details

Date: 06 October 2020
Orbit: 773 x 786 km, 98.7° (Epoch: 26 October)

Event Time Altitude Azimuth Distance (km) Brightness Sun altitude
Rises 07:37:14 0° 43° (NE) 3,254 7.6 -17.2°
Reaches altitude 10° 07:39:55 10° 56° (ENE) 2,332 7.1 -16.7°
Maximum altitude 07:44:00 24° 109° (ESE) 1,561 6.5 -15.8°
Drops below altitude 10° 07:48:07 10° 162° (SSE) 2,346 6.9 -14.9°
Sets 07:50:48 0° 175° (S) 3,279 7.5 -14.3°
